This is the latest recevied weather packets stored in our database for station/object DH4SBM. If no packets are shown the sender has not sent any weather packets the latest 10 day(s).
| Time | Temp. | Humidity | Pressure | Rain* | Wind** | Luminosity | Snow |
|---|---|---|---|---|---|---|---|
| 1787908023 | 18.89° C | 93% | 1013.6 hPa | 10.92 mm | - | 0 W/m² | - |
| 1787907423 | 19.44° C | 93% | 1013.2 hPa | 10.16 mm | - | 0 W/m² | - |
| 1787906223 | 19.44° C | 93% | 1011.8 hPa | 8.38 mm | - | 0 W/m² | - |
| 1787905623 | 20° C | 93% | 1012.5 hPa | 4.32 mm | - | 0 W/m² | - |
| 1787905023 | 20.56° C | 93% | 1011.2 hPa | 0.25 mm | - | 0 W/m² | - |
| 1787904423 | 20.56° C | 92% | 1011.1 hPa | 0.25 mm | - | 14 W/m² | - |
| 1787903823 | 20.56° C | 92% | 1010.9 hPa | 0.25 mm | - | 39 W/m² | - |
| 1787903223 | 20.56° C | 92% | 1010 hPa | 0.25 mm | - | 28 W/m² | - |
| 1787902623 | 20.56° C | 92% | 1010.9 hPa | 0.25 mm | - | 35 W/m² | - |
| 1787902023 | 20.56° C | 92% | 1010 hPa | 0 mm | - | 98 W/m² | - |
| 1787901423 | 20.56° C | 92% | 1010.8 hPa | 0 mm | - | 72 W/m² | - |
| 1787900823 | 20.56° C | 93% | 1010.7 hPa | 0 mm | - | 237 W/m² | - |
| 1787900223 | 20° C | 93% | 1011.1 hPa | 0.25 mm | - | 91 W/m² | - |
| 1787899623 | 20° C | 92% | 1010.9 hPa | 0.51 mm | - | 100 W/m² | - |
| 1787899023 | 20° C | 92% | 1011.2 hPa | 0.51 mm | - | 123 W/m² | - |
| 1787898423 | 19.44° C | 92% | 1011.3 hPa | 0.51 mm | - | 220 W/m² | - |
| 1787897823 | 20° C | 91% | 1011.4 hPa | 0.51 mm | - | 67 W/m² | - |
| 1787897223 | 20° C | 91% | 1012.1 hPa | 0.51 mm | - | 21 W/m² | - |
| 1787896623 | 20.56° C | 91% | 1012.2 hPa | 0.25 mm | - | 12 W/m² | - |
| 1787896023 | 20.56° C | 90% | 1012.1 hPa | 0 mm | - | 7 W/m² | - |
| 1787895423 | 20° C | 90% | 1010.6 hPa | 0 mm | - | 18 W/m² | - |
| 1787894823 | 20° C | 90% | 1010 hPa | 0.25 mm | - | 49 W/m² | - |
| 1787894223 | 20° C | 91% | 1009.8 hPa | 0.51 mm | - | 16 W/m² | - |
| 1787893623 | 20° C | 91% | 1010.7 hPa | 0.51 mm | - | 5 W/m² | - |
| 1787893023 | 19.44° C | 90% | 1010 hPa | 0.51 mm | - | 5 W/m² | - |
* Rain latest hour (hover to see other rain measurements)
** Current wind speed in m/s (hover to see current wind gust speed)